EHI
13 18 22 20 16 11 8 8 7 6 3 1 0 0 0 0 0 0 0 1 1 0 0 0 0 0 0 0 0 0 0 0 0 0 0 0 0 0 0 0 0 0 0
17 21 25 26 22 17 13 10 8 6 3 1 0 0 0 0 0 0 0 1 2 1 1 1 0 0 0 0 0 0 1 1 0 0 0 0 0 0 0 0 0 0 0
22 24 29 32 29 22 17 12 9 6 5 2 1 0 0 0 0 0 0 1 2 2 2 2 2 1 2 2 2 1 1 1 0 0 0 0 0 0 0 0 0 0 0
24 26 31 34 32 25 18 12 8 8 7 6 4 1 0 0 0 0 0 0 1 2 3 4 5 4 4 4 4 2 1 1 1 1 0 0 0 0 0 0 0 0 0
23 26 31 35 34 28 21 14 10 8 8 9 8 4 1 1 1 1 0 0 1 2 4 6 7 6 5 5 4 2 1 1 2 2 1 1 0 0 0 0 0 0 0
21 22 27 34 36 33 28 21 15 10 8 8 8 5 2 2 2 1 0 0 1 2 5 7 8 7 5 5 5 5 4 4 5 4 3 2 1 1 1 1 0 0 0
19 20 25 34 38 38 35 31 23 15 10 8 7 5 3 2 1 1 1 1 1 2 5 8 9 8 6 6 7 8 8 8 8 7 6 4 3 2 2 2 1 0 0
21 23 27 34 40 41 40 37 30 21 15 12 10 8 6 3 2 2 2 3 2 3 6 9 9 9 7 7 8 8 9 10 10 10 9 6 4 3 3 3 2 1 0
24 26 27 31 37 41 41 38 34 27 22 19 16 12 9 6 4 4 4 3 2 3 6 9 10 9 8 8 7 7 7 8 9 8 8 7 4 3 3 3 3 2 1
26 26 25 27 34 39 40 39 36 32 29 27 23 18 14 11 10 8 6 4 3 3 5 9 10 10 9 7 7 7 7 7 6 5 5 5 4 3 3 3 3 4 4
29 26 24 25 32 37 38 38 37 33 31 32 30 24 19 18 16 13 9 6 5 5 5 8 10 10 9 7 7 8 8 7 5 3 3 3 4 4 4 4 4 5 6
29 27 24 25 31 35 36 35 35 32 30 31 31 28 25 23 20 16 12 9 8 7 7 9 10 10 9 8 8 8 8 7 5 4 3 3 4 5 5 6 6 6 6
30 27 25 28 32 34 34 35 35 33 30 28 28 29 28 25 21 19 17 14 12 11 11 12 13 12 10 9 8 8 7 7 7 6 4 5 5 6 6 6 6 6 6
32 28 27 30 32 34 35 35 35 33 30 27 26 27 27 25 23 21 21 20 17 16 15 16 16 14 11 10 9 7 6 7 8 7 6 7 8 8 6 5 5 4 4
36 33 31 31 33 33 34 34 35 34 31 28 26 25 25 24 23 23 24 23 22 21 19 19 18 16 13 12 11 8 7 7 8 7 6 7 9 10 8 6 5 5 5
36 35 33 32 32 31 31 31 32 31 30 28 27 26 25 24 24 25 26 27 25 23 20 19 18 16 14 12 10 9 10 10 9 7 6 7 8 9 8 6 5 5 6
33 31 29 29 29 28 29 29 29 29 28 28 29 28 26 25 24 25 27 26 24 22 20 18 15 13 12 9 6 7 11 12 9 7 6 7 8 8 7 5 4 5 6
31 29 27 26 27 29 30 29 28 28 29 31 32 30 28 27 24 23 23 21 20 20 20 17 14 12 10 6 3 5 9 9 8 6 6 7 8 8 7 6 5 6 6
30 30 28 27 28 31 32 31 30 30 31 32 30 29 29 28 25 21 18 17 17 18 18 17 15 13 10 5 1 2 4 5 5 6 6 7 8 8 7 6 6 6 6
27 27 28 29 31 32 31 30 29 29 30 29 27 26 27 27 24 20 18 16 15 15 15 15 14 14 10 4 0 1 3 5 5 6 7 7 7 6 5 5 6 5 5
23 23 25 29 32 32 30 28 26 27 27 26 25 26 26 25 22 19 18 16 15 14 14 14 13 13 10 5 1 1 3 5 6 6 6 6 5 3 2 2 4 3 3
22 21 23 26 30 31 30 27 25 24 25 25 25 26 25 22 17 15 15 15 16 16 16 15 14 13 11 6 1 0 1 3 3 3 3 3 2 1 0 0 1 1 1
20 19 19 21 25 28 28 26 24 23 23 25 25 24 23 19 14 12 12 13 14 16 17 16 15 15 13 8 3 0 0 1 1 1 1 1 1 0 0 0 0 0 0
18 18 17 18 20 22 22 22 22 22 22 23 24 23 21 18 15 12 12 12 12 12 13 15 15 16 15 11 6 2 0 0 0 0 0 0 0 0 0 0 0 0 0
17 17 17 17 16 15 15 16 17 19 19 20 20 20 18 16 14 13 11 9 8 9 10 11 12 14 14 11 7 3 1 0 0 0 0 0 0 0 0 0 0 0 0
16 16 16 15 13 12 11 12 13 15 17 17 16 16 15 13 13 12 9 7 6 7 7 8 9 10 10 8 5 2 1 0 0 0 0 0 0 0 0 0 0 0 0
Wind_Speed
9 10 10 10 8 7 6 6 6 5 4 3 3 3 2 2 2 2 3 4 4 4 4 3 2 3 3 3 3 3 3 1 2 2 2 2 1 0 1 2 2 3 4
9 10 9 9 9 8 7 7 6 5 5 4 3 3 3 2 2 2 2 3 4 4 4 3 3 3 3 3 3 3 2 1 2 2 2 1 3 2 1 1 2 3 2
14 12 11 9 9 8 8 8 6 6 5 4 3 3 2 2 1 1 1 2 4 4 4 4 3 3 3 3 3 3 4 2 1 2 3 3 2 1 2 1 1 2 2
12 12 12 11 11 10 9 7 7 6 5 5 5 5 4 3 3 3 2 2 3 4 4 4 4 4 3 3 3 3 3 3 2 1 1 2 4 3 0 2 1 0 1
14 14 13 13 11 10 9 8 7 6 5 5 6 5 4 3 2 2 2 2 2 3 4 4 4 4 3 3 3 3 3 3 3 2 1 1 1 2 3 1 1 1 1
14 13 12 11 9 9 8 7 7 6 6 6 5 6 6 5 4 3 3 2 2 2 3 3 3 4 3 3 3 3 3 3 3 2 2 2 2 2 3 2 2 1 1
13 13 12 12 11 10 10 9 8 7 6 6 6 6 6 6 6 5 4 4 2 2 3 3 3 3 3 4 3 3 3 3 3 3 2 2 3 3 3 3 2 1 1
12 13 13 13 13 13 12 10 10 8 7 7 6 5 6 4 4 5 4 4 4 3 4 4 3 4 4 4 3 3 3 3 3 4 3 2 2 2 3 4 4 2 1
12 12 12 12 12 12 11 11 11 9 8 8 6 5 5 5 5 4 4 3 3 3 4 4 4 4 3 3 3 3 3 3 3 3 3 2 2 2 2 3 4 4 3
10 11 11 12 11 11 10 10 10 10 8 8 7 6 5 6 5 4 4 4 4 3 4 4 4 3 3 3 3 2 3 3 2 2 2 2 2 2 2 3 3 3 4
11 11 10 11 10 9 10 9 9 8 7 8 7 6 6 5 4 4 5 4 4 4 4 4 4 4 4 3 3 3 3 3 3 3 3 3 2 2 2 2 2 2 3
10 10 10 10 9 9 9 9 9 8 8 8 7 6 5 5 5 5 4 4 4 4 4 4 4 4 4 3 4 4 4 4 4 4 3 3 2 3 2 2 3 2 3
7 7 8 9 9 9 9 9 9 9 8 7 6 5 5 5 5 5 4 4 4 4 4 4 4 4 4 4 4 4 4 4 4 4 4 4 3 3 2 2 2 2 2
8 8 9 9 8 8 8 8 8 8 8 7 7 6 7 6 6 5 5 4 4 4 4 4 5 5 4 4 4 4 4 4 4 3 4 4 4 4 4 3 3 3 2
7 9 9 9 8 7 7 7 7 6 7 8 7 7 7 6 5 5 5 4 4 5 4 4 4 4 4 4 5 4 4 4 3 2 3 3 4 5 4 3 4 4 3
6 7 8 8 8 7 7 6 6 6 6 7 7 6 6 5 5 5 5 5 5 4 4 4 4 4 4 4 6 5 4 4 4 3 3 3 3 4 5 5 6 7 6
6 7 8 8 8 8 7 7 6 6 6 6 6 5 5 6 6 5 4 5 5 4 4 4 4 4 5 6 7 8 5 5 5 5 4 3 3 3 3 4 5 6 7
5 5 6 6 5 6 5 5 5 6 6 5 5 5 5 5 5 5 5 5 4 4 4 4 5 5 6 7 7 8 5 5 5 5 5 5 4 4 4 3 3 3 4
4 4 5 5 5 5 5 5 4 4 4 4 4 4 5 5 5 5 6 5 4 4 4 4 5 5 5 7 7 6 3 4 5 4 4 5 5 6 6 4 4 4 4
3 4 4 4 4 3 4 6 4 4 3 3 3 3 4 4 5 5 4 3 4 4 4 4 4 4 4 5 6 6 3 3 3 3 4 6 7 7 8 6 5 6 5
4 5 6 4 3 3 5 4 3 3 2 2 1 1 2 3 4 3 3 3 3 3 3 3 3 3 4 5 6 6 4 4 3 3 3 4 7 8 8 7 6 7 5
4 5 5 3 2 3 5 4 2 2 1 1 1 1 2 2 2 2 3 2 3 3 3 3 3 3 3 4 5 6 6 5 5 5 4 4 6 7 8 7 6 6 4
4 4 5 4 3 2 3 3 2 2 2 1 1 1 2 2 2 3 3 2 2 2 2 2 3 3 2 3 5 6 7 7 5 4 5 5 6 6 6 8 7 5 4
3 3 4 3 2 2 2 1 1 1 2 1 1 1 1 1 1 1 2 2 2 3 3 3 3 3 2 2 2 3 4 5 4 3 3 4 5 5 5 4 4 4 5
3 3 3 2 1 1 2 1 1 2 1 0 1 0 1 1 1 1 1 2 2 4 4 3 3 3 4 5 5 4 4 4 4 3 1 1 1 2 2 2 3 3 3
3 3 3 1 1 1 1 1 1 1 1 0 1 1 1 1 1 1 1 2 2 2 4 5 4 4 5 5 5 6 6 6 5 4 2 3 3 4 4 4 4 4 4
Wind_Direction
170 162 160 157 153 149 143 144 147 153 143 134 135 135 145 156 155 163 161 161 159 154 147 148 147 139 140 151 146 138 133 125 116 91 46 6 356 14 222 184 172 177 184
164 165 164 161 161 160 154 151 156 158 158 157 154 153 151 159 167 169 162 168 161 157 158 154 157 152 144 144 145 141 133 152 140 131 112 27 356 356 358 155 174 185 180
173 172 169 168 164 164 164 163 164 160 161 153 133 118 98 85 97 149 178 186 168 165 161 161 158 158 155 165 171 159 155 170 193 161 152 155 203 300 342 333 142 166 164
173 173 172 171 174 175 170 165 166 165 163 151 145 148 152 166 188 180 182 186 175 173 170 169 165 165 161 166 181 165 160 156 178 214 197 177 164 160 200 334 341 140 171
177 176 176 176 177 174 170 169 168 170 168 161 160 156 158 172 166 156 164 185 189 183 177 173 173 172 167 172 178 167 165 165 175 186 181 143 135 143 151 200 284 335 273
180 177 174 170 170 170 170 170 168 174 172 167 166 166 164 165 157 165 173 187 190 194 191 176 174 175 174 181 184 183 177 184 186 190 180 170 170 181 164 180 201 227 258
179 175 172 172 172 172 176 175 173 177 179 174 175 177 172 169 175 178 180 179 181 192 201 186 177 180 186 188 186 185 193 191 190 198 200 197 199 175 160 154 170 197 244
179 178 178 177 176 177 178 177 177 180 182 181 184 181 177 175 182 182 178 185 190 197 190 183 187 192 193 194 187 192 206 200 202 210 203 204 215 186 171 164 156 161 244
177 177 176 175 175 177 179 178 178 180 184 186 184 184 184 182 186 184 179 188 191 193 186 185 187 192 193 191 184 199 210 200 203 207 206 207 221 204 194 172 161 160 189
173 175 177 177 176 177 178 176 178 184 186 187 190 189 192 193 190 179 183 185 188 185 174 184 187 194 196 193 189 202 212 200 209 204 203 215 222 208 193 183 180 170 170
171 175 179 179 175 172 175 174 179 182 184 186 190 191 194 194 186 187 193 192 191 185 185 190 191 198 206 206 199 209 205 203 216 215 203 214 199 196 194 182 182 181 162
167 169 172 171 171 175 177 179 182 185 190 189 187 189 188 187 187 196 201 195 191 193 193 188 192 201 206 207 205 215 213 206 213 216 207 217 204 204 201 190 194 193 179
157 160 163 167 172 176 179 182 184 190 190 185 186 187 186 187 191 194 192 187 185 189 192 188 197 206 209 210 213 211 210 207 212 211 208 215 195 208 208 198 195 201 191
157 159 163 162 169 174 177 179 185 189 182 178 182 189 195 193 191 188 188 189 188 192 198 203 207 209 211 211 212 204 202 203 207 206 207 204 196 200 196 194 190 180 171
140 154 162 161 164 165 170 173 181 184 180 179 185 194 195 190 186 188 191 194 195 198 196 201 210 211 209 210 201 199 197 199 204 206 206 205 201 198 193 191 186 173 174
137 146 151 151 157 161 170 170 174 175 168 175 189 193 188 185 189 191 189 189 199 199 188 194 202 213 224 212 198 192 196 194 192 203 215 211 203 204 203 202 195 183 182
149 152 153 157 164 169 170 170 177 171 168 178 188 186 186 186 191 190 186 195 203 200 198 203 209 219 228 213 202 198 195 200 204 204 207 217 212 202 198 204 202 207 205
142 147 149 153 159 158 156 157 155 158 166 178 187 190 188 196 198 190 196 204 201 202 208 211 218 224 233 220 213 206 204 208 213 211 207 208 215 211 191 195 210 227 228
136 131 133 140 135 141 147 137 139 145 153 173 184 190 191 194 199 202 207 205 197 204 211 211 215 225 237 223 216 205 205 212 219 219 214 207 213 216 194 189 209 235 253
112 113 105 104 112 122 127 127 137 135 154 180 190 186 186 194 207 210 206 200 196 205 209 220 221 220 225 219 214 204 201 205 218 226 226 220 213 213 200 196 203 224 241
100 102 100 103 116 123 119 121 130 157 187 178 160 170 193 204 206 205 202 197 197 200 207 219 229 224 223 222 218 208 201 203 206 218 228 230 213 213 211 206 210 222 221
91 104 103 102 99 110 118 124 153 190 169 163 175 212 228 227 215 206 210 201 193 202 217 225 245 250 238 228 226 218 212 205 203 218 223 226 218 217 215 213 221 220 208
84 100 107 96 74 84 114 136 200 184 165 174 226 250 255 250 228 209 209 207 201 204 221 225 239 254 253 242 232 221 215 210 209 222 222 225 225 223 223 225 222 210 202
83 87 94 93 69 58 91 134 181 151 146 176 230 252 239 255 263 222 198 203 215 217 223 225 238 250 252 246 233 224 220 221 223 231 232 228 224 218 225 228 221 211 208
62 77 89 91 84 66 63 52 60 101 114 171 216 246 205 208 215 194 198 211 227 216 211 224 223 230 251 249 229 210 213 211 214 198 193 203 207 224 235 235 231 220 215
55 57 57 72 78 67 41 12 26 76 111 164 237 213 205 204 198 186 311 319 253 258 237 226 226 242 241 245 235 220 215 211 189 163 196 218 222 227 230 231 232 226 225